Voltar ao catálogo

TITAN 34B AGENA D R/B

AtivoHEO
NORAD 5054·ROCKET BODY·🇺🇸 United States

Lançado Mar 21, 1971 de Vandenberg Space Force Base

Loading…

Próximas Passagens (próximas 24 horas)

TLE

AtualizadoSource: Space-Track

Época: Sep 10, 2026, 03:42 UTC

1  5054U 71021B   26253.15451962  .00000187  00000-0  18014-3 0  9999
2  5054  63.5122 357.0268 7322590 267.4924  15.3379  2.20316542 58981

Acompanhe TITAN 34B AGENA D R/B em tempo real com AllMySat

Download on the App Store